TimeCST,TemperatureF,Dew PointF,Humidity,Sea Level PressureIn,VisibilityMPH,Wind Direction,Wind SpeedMPH,Gust SpeedMPH,PrecipitationIn,Events,Conditions,WindDirDegrees,DateUTC
12:52 AM,37.0,18.0,46,29.98,10.0,SSW,10.4,-,N/A,,Clear,200,2014-02-22 06:52:00
1:52 AM,37.0,17.1,44,29.96,10.0,South,10.4,-,N/A,,Clear,180,2014-02-22 07:52:00
2:52 AM,33.1,18.0,54,29.97,10.0,South,9.2,-,N/A,,Clear,180,2014-02-22 08:52:00
3:52 AM,37.0,17.1,44,29.96,10.0,South,8.1,-,N/A,,Clear,170,2014-02-22 09:52:00
4:52 AM,35.1,18.0,50,29.96,10.0,SSE,9.2,-,N/A,,Clear,160,2014-02-22 10:52:00
5:52 AM,35.1,19.0,52,29.97,10.0,SSE,9.2,-,N/A,,Clear,160,2014-02-22 11:52:00
6:52 AM,39.0,19.0,45,29.97,10.0,SSE,12.7,-,N/A,,Clear,160,2014-02-22 12:52:00
7:52 AM,42.1,19.0,40,29.97,10.0,SSE,12.7,-,N/A,,Clear,160,2014-02-22 13:52:00
8:52 AM,48.0,19.0,32,29.96,10.0,South,13.8,-,N/A,,Clear,170,2014-02-22 14:52:00
9:52 AM,54.0,21.9,29,29.95,10.0,South,15.0,-,N/A,,Clear,180,2014-02-22 15:52:00
10:52 AM,57.9,24.1,27,29.93,10.0,South,16.1,-,N/A,,Clear,190,2014-02-22 16:52:00
11:52 AM,63.0,26.1,25,29.90,10.0,South,18.4,-,N/A,,Clear,180,2014-02-22 17:52:00
12:52 PM,64.9,26.1,23,29.87,10.0,South,16.1,-,N/A,,Clear,190,2014-02-22 18:52:00
1:52 PM,64.9,27.0,24,29.83,10.0,South,12.7,-,N/A,,Clear,180,2014-02-22 19:52:00
2:52 PM,66.0,26.1,22,29.81,10.0,WSW,15.0,-,N/A,,Clear,240,2014-02-22 20:52:00
3:52 PM,66.0,25.0,21,29.80,10.0,SW,16.1,24.2,N/A,,Clear,230,2014-02-22 21:52:00
4:52 PM,64.9,26.1,23,29.82,10.0,WSW,13.8,-,N/A,,Partly Cloudy,240,2014-02-22 22:52:00
5:34 PM,57.0,28.9,34,29.84,10.0,North,15.0,-,N/A,,Scattered Clouds,360,2014-02-22 23:34:00
5:52 PM,55.0,28.0,35,29.86,10.0,North,12.7,-,N/A,,Clear,10,2014-02-22 23:52:00
6:52 PM,48.0,28.0,46,29.88,10.0,NNE,9.2,-,N/A,,Clear,30,2014-02-23 00:52:00
7:52 PM,46.9,28.0,48,29.91,10.0,NNE,8.1,-,N/A,,Clear,30,2014-02-23 01:52:00
8:52 PM,45.0,28.0,52,29.93,10.0,NNE,9.2,-,N/A,,Clear,30,2014-02-23 02:52:00
9:52 PM,43.0,28.0,56,29.95,10.0,NNE,10.4,-,N/A,,Clear,20,2014-02-23 03:52:00
10:52 PM,42.1,28.0,58,29.94,10.0,NE,8.1,-,N/A,,Clear,40,2014-02-23 04:52:00
11:52 PM,42.1,28.9,60,29.93,10.0,NE,9.2,-,N/A,,Clear,40,2014-02-23 05:52:00